| time (UTC) | temp F | wind direction | speed knots | gust knots | rain 1hr in | rain 24hr in | rain mn in | humidity % | barometer mb |
| 20260504001505 | 79 | 312 | 1.7 | 5.2 | 0.00 | 0.00 | 0.00 | 41 | 1012.5 |
| 20260504000005 | 78 | 306 | 1.7 | 7.8 | 0.00 | 0.00 | 0.00 | 44 | 1012.7 |
| 20260503234505 | 79 | 319 | 0.9 | 6.1 | 0.00 | 0.00 | 0.00 | 45 | 1012.7 |
| 20260503233005 | 79 | 311 | 0.9 | 6.1 | 0.00 | 0.00 | 0.00 | 47 | 1012.9 |
| 20260503231504 | 79 | 318 | 1.7 | 5.2 | 0.00 | 0.00 | 0.00 | 46 | 1013.1 |
| 20260503230004 | 79 | 301 | 2.6 | 11.3 | 0.00 | 0.00 | 0.00 | 47 | 1013.3 |
| 20260503224504 | 79 | 2 | 0.9 | 2.6 | 0.00 | 0.00 | 0.00 | 43 | 1013.5 |
| 20260503223004 | 78 | 335 | 1.7 | 6.1 | 0.00 | 0.00 | 0.00 | 42 | 1013.7 |
| 20260503221504 | 79 | 348 | 1.7 | 3.5 | 0.00 | 0.00 | 0.00 | 43 | 1013.8 |
| 20260503211505 | 79 | 11 | 0.9 | 2.6 | 0.00 | 0.00 | 0.00 | 50 | 1014.4 |
| 20260503204504 | 77 | 335 | 0.9 | 4.3 | 0.00 | 0.00 | 0.00 | 48 | 1014.8 |
| 20260503203005 | 76 | 311 | 1.7 | 5.2 | 0.00 | 0.00 | 0.00 | 55 | 1014.9 |
| 20260503200004 | 75 | 9 | 0.9 | 3.5 | 0.00 | 0.00 | 0.00 | 57 | 1015.4 |
| 20260503194504 | 76 | 349 | 0.9 | 3.5 | 0.00 | 0.00 | 0.00 | 54 | 1015.4 |
| 20260503193005 | 74 | 326 | 1.7 | 5.2 | 0.00 | 0.00 | 0.00 | 56 | 1015.6 |
| 20260503191504 | 74 | 313 | 1.7 | 8.7 | 0.00 | 0.00 | 0.00 | 58 | 1015.7 |
| 20260503183005 | 71 | 50 | 0.9 | 2.6 | 0.00 | 0.00 | 0.00 | 65 | 1016.3 |
| 20260503181505 | 72 | 44 | 0.9 | 1.7 | 0.00 | 0.00 | 0.00 | 59 | 1016.4 |
| 20260503173005 | 70 | 69 | 0.0 | 0.9 | 0.00 | 0.00 | 0.00 | 62 | 1016.5 |
| 20260503171503 | 70 | 8 | 0.0 | 0.9 | 0.00 | 0.00 | 0.00 | 68 | 1016.6 |
| 20260503081504 | 52 | 0 | 0.0 | 0.0 | 0.00 | 0.00 | 0.00 | 86 | 1017.0 |
| 20260503071504 | 54 | 0 | 0.0 | 0.0 | 0.00 | 0.00 | 0.00 | 85 | 1016.8 |
| 20260503054505 | 56 | 0 | 0.0 | 0.0 | 0.00 | 0.00 | 0.00 | 81 | 1016.5 |
| 20260503053004 | 57 | 0 | 0.0 | 0.0 | 0.00 | 0.00 | 0.00 | 78 | 1016.5 |
| 20260503051503 | 58 | 0 | 0.0 | 0.0 | 0.00 | 0.00 | 0.00 | 75 | 1016.6 |
| 20260503044506 | 58 | 0 | 0.0 | 0.0 | 0.00 | 0.00 | 0.00 | 76 | 1016.4 |
| 20260503043006 | 59 | 0 | 0.0 | 0.0 | 0.00 | 0.00 | 0.00 | 74 | 1016.4 |
| 20260503040005 | 62 | 302 | 0.0 | 0.9 | 0.00 | 0.00 | 0.00 | 69 | 1016.1 |
| 20260503033006 | 64 | 302 | 0.0 | 0.9 | 0.00 | 0.00 | 0.00 | 61 | 1015.6 |
| 20260503030005 | 67 | 326 | 0.9 | 5.2 | 0.00 | 0.00 | 0.00 | 56 | 1015.4 |
| 20260503024505 | 68 | 329 | 1.7 | 3.5 | 0.00 | 0.00 | 0.00 | 53 | 1015.3 |
| 20260503020005 | 71 | 335 | 1.7 | 3.5 | 0.00 | 0.00 | 0.00 | 50 | 1015.4 |
| 20260503014505 | 71 | 333 | 1.7 | 2.6 | 0.00 | 0.00 | 0.00 | 51 | 1015.6 |
| 20260503013005 | 72 | 331 | 0.9 | 6.1 | 0.00 | 0.00 | 0.00 | 51 | 1015.6 |
| 20260503011506 | 73 | 2 | 0.9 | 2.6 | 0.00 | 0.00 | 0.00 | 52 | 1015.6 |
| 20260503004505 | 74 | 344 | 0.9 | 3.5 | 0.00 | 0.00 | 0.00 | 51 | 1015.7 |
| 20260503003006 | 74 | 332 | 0.9 | 7.0 | 0.00 | 0.00 | 0.00 | 48 | 1015.7 |